User: anonymous   Login
Location: Ottawa
(45.4170°N, 75.7000°W)
Time: 04:52:55
(UTC-04:00)
Language:

Aureole 3 Rocket - Orbit

View from above orbital plane
View from above orbital plane
View from above satellite
View from above satellite

Ground track
Ground track

The orbit data is extracted from the following two-line orbital elements,

1 12849U 81094B   17174.93713133 +.00000418 +00000-0 +35308-4 0  9992
2 12849 082.4913 161.5782 0904082 036.9753 329.0330 13.50150830742851
Epoch (UTC): 23 June 2017 22:29:28
Eccentricity: 0.0904082
inclination: 82.4913°
perigee height: 398 km
apogee height: 1745 km
right ascension of ascending node: 161.5782°
argument of perigee: 36.9753°
revolutions per day: 13.50150830
mean anomaly at epoch: 329.0330°
orbit number at epoch: 74285

The dashed part of the orbit path shows where the satellite is in the earth's shadow,  

DLR